RADARSAT

导读 | 豆包AI

RADARSAT-1是加拿大航天局研发的雷达成像对地观测卫星,于1995年11月4日发射升空。卫星运行于798公里高度的太阳同步轨道,携带C波段合成孔径雷达,支持7种成像模式,分辨率覆盖8-100米,幅宽50-500公里,可全天候穿透云层监测。它在灾害防控、海洋观测、农业测绘、地质勘探等领域广泛应用,累计为全球超600家用户提供超62万幅影像数据,开创了商业合成孔径雷达卫星的应用先河,2013年正式停止服务,是地球遥感领域的里程碑之作。

基本信息
目录编号:
23710
目录名称:
RADARSAT
国际标识:
1995-059A
轨道中心:
EARTH
卫星名称:
RADARSAT
卫星全名:
--
卫星状态:
在轨 (已飞行11135 天)
发射日期:
1995-11-04 UTC
国别 :
加拿大 (CA)
星等 :
--
轨道信息
数据来源 国际轨道数据 AOE轨道数据
星历时间 2026-04-30T22:16:44+0800
7小时前
查看轨道信息
2026-04-30T09:00:00+0800
21小时前
查看轨道信息
半长轴 7161.916km 7161.91km
偏心率 0.0001244 0.0001294
轨道倾角 98.548° 98.546°
近地点辐角 106.221° 88.169°
升交点赤经 130.234° 129.692°
平近点角 253.911° 300.522°
近地点 782.888km 782.846km
远地点 784.67km 784.7km
周期 100.532分钟 100.532分钟
每日圈数 14.323823 14.323841
详细信息
使用方式:
暂无
2D轨道图
3D轨道图
轨道高度分析图
轨道倾角分析图
轨道综合分析图
查看轨道综合分析图